User: anonymous   Login
Location: Unspecified
(0.0000°N, 0.0000°E)
Time: 23:17:30
(UTC+00:00)
Language:

YAOGAN-43 O1A - Orbit

View from above orbital plane
View from above orbital plane
View from above satellite
View from above satellite

Ground track
Ground track

The orbit is defined by the following mean orbital elements,

1 60458U          26145.67186824 +.00000000 +00000-0 +45682-3 0 00004
2 60458  35.0051 282.9519 0004841  11.3513 348.7314 15.35028991    09
Epoch (UTC): 25 May 2026 16:07:29
Eccentricity: 0.0004841
inclination: 35.0051°
perigee height: 458 km
apogee height: 464 km
right ascension of ascending node: 282.9519°
argument of perigee: 11.3513°
revolutions per day: 15.35028991
mean anomaly at epoch: 348.7314°

The dashed part of the orbit path shows where the satellite is in the earth's shadow,  

DLR